STARLINK-30156

decayed
NORAD ID: 57466 Int'l Des: 2023-107 Owner: SPXS Country: US Constellation: starlink
LEOCIRCULAR
Group

About STARLINK-30156

Description loading...

Altitude History

Altitude vs Time

uPlot chart will show altitude changes over time

Two-Line Element Set

1 57466U 23107K 23289.66199799 .05260150 92380-5 10210-2 0 9993
2 57466 42.9870 11.5648 0011191 13.8816 136.9823 16.30550441 13943
Epoch: Oct 16, 2023 • Age: 16831 hours

Current Status

Position data unavailable
Launch Date Jul 28, 2023
Age 2.1 years
Decay Date Oct 17, 2023
Type internet

Technical Details

Classification Payload
Mass 730.00 kg
Dry Mass 700.00 kg
Total Mass 730.00 kg
Length 0.30 m
Diameter 4.10 m
Span 29.00 m
Shape Box + pan
Manufacturer SPXS
Bus Type Starlink V2M
Phase Status Unknown Transfer Status
Owner/State SPXS/US

Large Constellations

Loading constellations...